Location: *
(37.5724°S, 58.0067°E)
Time: 12:10:19
(UTC+00:00)

USA 229 DEB - Pass Details

Date: 06 December 2021
Orbit: 943 x 1269 km, 63.4° (Epoch: 14 January)

Event Time Altitude Azimuth Distance (km) Brightness Sun altitude
Rises 17:17:49 0° 305° (NW) 4,209 6.9 -18.9°
Reaches altitude 10° 17:20:51 10° 298° (WNW) 3,228 6.3 -19.3°
Maximum altitude 17:28:09 42° 229° (SW) 1,678 5.2 -20.1°
Drops below altitude 10° 17:35:07 10° 159° (SSE) 3,069 6.5 -21.0°
Sets 17:37:58 0° 152° (SSE) 3,984 7.1 -21.3°
